Volver al catálogo

FENGYUN 1C DEB

ActivoSSO
NORAD 31152·DEBRIS·🇨🇳 China

Lanzado May 10, 1999 desde Taiyuan Satellite Launch Center

Loading…

Próximos Pases (próximas 24 horas)

TLE

ActualizadoSource: Space-Track

Época: Sep 14, 2026, 22:11 UTC

1 31152U 99025BHE 26257.92494676  .00000128  00000-0  55004-4 0  9995
2 31152  98.4400 243.4570 0128022 289.5537  98.2508 14.36011923 20136

Sigue FENGYUN 1C DEB en tiempo real con AllMySat

Download on the App Store